Simultaneous Nadir Overpasses (SNOs) Predictions

Prediction of SNOs between LANDSAT-8 and NOAA-19 Satellite Orbit:

Table of predicted SNOs for the next 14.0 days since TLE Epoch: 7/18/2015
Index Date (LANDSAT-8) Time (LANDSAT-8) Lat,Lon (LANDSAT-8) SZA (LANDSAT-8 ) Date (NOAA-19) Time (NOAA-19) Lat,Lon (NOAA-19) SZA (NOAA-19 ) Distance(km) Time Diff (sec)
1 07/18/2015 12:55:24 -73.40, 167.95 127.72 07/18/2015 12:55:00 -73.40, 167.86 127.72 2.87 24
2 07/18/2015 13:44:52 73.26, -24.68 52.16 07/18/2015 13:46:00 73.26, -24.57 52.15 3.64 68
3 07/20/2015 17:39:38 -73.62, 97.35 127.09 07/20/2015 17:38:26 -73.70, 96.33 127.01 33.45 72
4 07/20/2015 18:29:09 73.33, -95.62 52.63 07/20/2015 18:29:21 73.35, -95.59 52.65 2.63 12
5 07/22/2015 23:13:26 73.39,-166.57 53.11 07/22/2015 23:12:41 73.40,-166.50 53.13 2.58 45
6 07/23/2015 00:02:55 -73.32, 0.93 126.95 07/23/2015 00:03:40 -73.31, 0.97 126.97 2.38 45
7 07/25/2015 04:47:12 -73.38, -70.02 126.44 07/25/2015 04:47:01 -73.38, -69.99 126.44 1.02 11
8 07/25/2015 05:36:44 73.03, 96.90 53.22 07/25/2015 05:37:54 72.99, 98.16 53.18 40.95 70
9 07/27/2015 09:31:29 -73.43,-140.99 125.91 07/27/2015 09:30:22 -73.46,-140.97 125.87 3.37 67
10 07/27/2015 10:20:56 73.34, 26.47 54.02 07/27/2015 10:21:20 73.34, 26.55 54.02 2.63 24
11 07/29/2015 15:05:12 73.43, -44.41 54.62 07/29/2015 15:04:40 73.41, -44.40 54.60 2.54 32
12 07/29/2015 15:54:42 -73.32, 122.99 125.49 07/29/2015 15:55:41 -73.32, 123.05 125.49 1.88 59
13 07/31/2015 19:49:19 73.99,-
